User: anonymous   Login
Location: Caltech
(34.1382°N, 118.1253°W)
Time: 23:32:55
(UTC-07:00)
Language:

deb Explorer IX - Orbit

View from above orbital plane
View from above orbital plane
View from above satellite
View from above satellite

Ground track
Ground track

The orbit data is extracted from the following two-line orbital elements,

1 00085U 61004C   15109.41090830  .00011161  00000-0  26103-2 0  9999
2 00085 038.7728 234.8535 0422367 236.8985 119.0539 14.11537914663363
Epoch (UTC): 19 April 2015 09:51:42
Eccentricity: 0.0422367
inclination: 38.7728°
perigee height: 548 km
apogee height: 1159 km
right ascension of ascending node: 234.8535°
argument of perigee: 236.8985°
revolutions per day: 14.11537914
mean anomaly at epoch: 119.0539°
orbit number at epoch: 66336

The dashed part of the orbit path shows where the satellite is in the earth's shadow,  

DLR